| time (UTC) | temp F | wind direction | speed knots | gust knots | rain 1hr in | rain 24hr in | rain mn in | humidity % | barometer mb |
| 20260902093017 | 58 | 0.0 | 0.0 | 0.00 | 0.01 | 0.00 | 96 | 1009.6 | |
| 20260902092057 | 58 | 0.0 | 0.0 | 0.00 | 0.01 | 0.00 | 96 | 1009.6 | |
| 20260902091018 | 58 | 0.0 | 0.0 | 0.00 | 0.01 | 0.00 | 96 | 1009.5 | |
| 20260902090017 | 58 | 0.0 | 0.0 | 0.00 | 0.01 | 0.00 | 96 | 1009.6 | |
| 20260902085037 | 58 | 0.0 | 0.0 | 0.00 | 0.01 | 0.00 | 96 | 1009.6 | |
| 20260902084102 | 58 | 0.0 | 0.0 | 0.00 | 0.01 | 0.00 | 96 | 1009.8 | |
| 20260902083016 | 58 | 0.0 | 0.0 | 0.00 | 0.01 | 0.00 | 96 | 1009.9 | |
| 20260902082017 | 58 | 0.0 | 0.0 | 0.00 | 0.01 | 0.00 | 96 | 1010.0 | |
| 20260902081017 | 58 | 0.0 | 0.0 | 0.00 | 0.01 | 0.00 | 96 | 1010.1 | |
| 20260902080017 | 59 | 0.0 | 0.0 | 0.00 | 0.01 | 0.00 | 96 | 1010.0 | |
| 20260902075017 | 59 | 0.0 | 0.0 | 0.00 | 0.01 | 0.00 | 96 | 1010.2 | |
| 20260902074017 | 59 | 0.0 | 0.0 | 0.00 | 0.01 | 0.00 | 96 | 1010.2 | |
| 20260902073016 | 58 | 0.0 | 0.0 | 0.00 | 0.01 | 0.00 | 96 | 1010.2 | |
| 20260902072017 | 58 | 0.0 | 0.0 | 0.00 | 0.01 | 0.00 | 96 | 1010.2 | |
| 20260902071018 | 58 | 0.0 | 0.0 | 0.00 | 0.01 | 0.00 | 96 | 1010.3 | |
| 20260902070037 | 58 | 0.0 | 0.0 | 0.00 | 0.01 | 0.01 | 96 | 1010.4 | |
| 20260902065017 | 58 | 0.0 | 0.0 | 0.00 | 0.01 | 0.01 | 96 | 1010.5 | |
| 20260902064017 | 58 | 0.0 | 0.0 | 0.00 | 0.01 | 0.01 | 96 | 1010.5 | |
| 20260902063017 | 58 | 0.0 | 0.0 | 0.00 | 0.01 | 0.01 | 96 | 1010.5 | |
| 20260902062036 | 58 | 0.0 | 0.0 | 0.00 | 0.01 | 0.01 | 96 | 1010.4 | |
| 20260902061058 | 58 | 0.0 | 0.0 | 0.00 | 0.01 | 0.01 | 96 | 1010.5 | |
| 20260902060016 | 58 | 0.0 | 0.0 | 0.00 | 0.01 | 0.01 | 95 | 1010.5 | |
| 20260902055016 | 58 | 0.0 | 0.0 | 0.00 | 0.01 | 0.01 | 95 | 1010.5 | |
| 20260902054018 | 58 | 0.0 | 0.0 | 0.00 | 0.01 | 0.01 | 95 | 1010.6 | |
| 20260902053020 | 59 | 0.0 | 0.0 | 0.00 | 0.01 | 0.01 | 95 | 1010.6 | |
| 20260902052019 | 59 | 0.0 | 0.0 | 0.00 | 0.01 | 0.01 | 94 | 1010.8 | |
| 20260902051017 | 59 | 0.0 | 0.0 | 0.00 | 0.01 | 0.01 | 94 | 1010.7 | |
| 20260902050017 | 59 | 0.0 | 0.0 | 0.00 | 0.01 | 0.01 | 94 | 1010.7 | |
| 20260902045016 | 59 | 0.0 | 0.0 | 0.01 | 0.01 | 0.01 | 94 | 1010.7 | |
| 20260902044042 | 60 | 0.0 | 0.0 | 0.01 | 0.01 | 0.01 | 93 | 1010.7 | |
| 20260902043017 | 60 | 0.0 | 0.0 | 0.01 | 0.01 | 0.01 | 93 | 1010.8 | |
| 20260902042017 | 60 | 0.0 | 0.0 | 0.01 | 0.01 | 0.01 | 92 | 1010.7 | |
| 20260902041018 | 61 | 0.0 | 0.0 | 0.01 | 0.01 | 0.01 | 91 | 1010.8 | |
| 20260902040017 | 61 | 0.0 | 0.0 | 0.01 | 0.01 | 0.01 | 89 | 1010.8 | |
| 20260902035019 | 62 | 0.0 | 0.0 | 0.00 | 0.00 | 0.00 | 88 | 1011.0 | |
| 20260902034018 | 63 | 0.0 | 0.0 | 0.00 | 0.00 | 0.00 | 85 | 1010.7 | |
| 20260902033016 | 63 | 0.0 | 0.0 | 0.00 | 0.00 | 0.00 | 85 | 1010.5 | |
| 20260902032041 | 63 | 0.0 | 0.0 | 0.00 | 0.00 | 0.00 | 84 | 1010.4 | |
| 20260902031045 | 63 | 0.0 | 0.0 | 0.00 | 0.00 | 0.00 | 84 | 1010.3 | |
| 20260902030039 | 63 | 0.0 | 0.0 | 0.00 | 0.00 | 0.00 | 83 | 1010.2 | |
| 20260902025016 | 64 | 0.0 | 0.0 | 0.00 | 0.00 | 0.00 | 82 | 1010.1 | |
| 20260902024023 | 64 | 0.0 | 0.0 | 0.00 | 0.00 | 0.00 | 82 | 1010.1 | |
| 20260902023016 | 64 | 0.0 | 0.0 | 0.00 | 0.00 | 0.00 | 81 | 1010.1 | |
| 20260902022016 | 64 | 0.0 | 0.0 | 0.00 | 0.00 | 0.00 | 81 | 1010.2 | |
| 20260902021016 | 64 | 0.0 | 0.0 | 0.00 | 0.00 | 0.00 | 81 | 1010.2 | |
| 20260902020016 | 64 | 0.0 | 0.0 | 0.00 | 0.00 | 0.00 | 80 | 1010.0 | |
| 20260902015019 | 64 | 0.0 | 0.0 | 0.00 | 0.00 | 0.00 | 81 | 1010.1 | |
| 20260902014017 | 64 | 0.0 | 0.0 | 0.00 | 0.00 | 0.00 | 80 | 1010.1 | |
| 20260902013016 | 65 | 0.0 | 0.0 | 0.00 | 0.00 | 0.00 | 80 | 1010.1 | |
| 20260902012016 | 65 | 0.0 | 0.0 | 0.00 | 0.00 | 0.00 | 79 | 1010.1 | |
| 20260902011017 | 65 | 0.0 | 0.0 | 0.00 | 0.00 | 0.00 | 78 | 1010.0 | |
| 20260902010016 | 65 | 0.0 | 0.0 | 0.00 | 0.00 | 0.00 | 78 | 1010.1 | |
| 20260902005016 | 65 | 0.0 | 0.9 | 0.00 | 0.00 | 0.00 | 77 | 1010.0 | |
| 20260902004016 | 65 | 0.0 | 0.0 | 0.00 | 0.00 | 0.00 | 78 | 1010.0 | |
| 20260902003016 | 65 | 0.0 | 0.0 | 0.00 | 0.00 | 0.00 | 78 | 1010.1 | |
| 20260902002016 | 65 | 0.0 | 0.0 | 0.00 | 0.00 | 0.00 | 77 | 1010.1 | |
| 20260902001016 | 65 | 0.0 | 0.9 | 0.00 | 0.00 | 0.00 | 77 | 1010.1 | |
| 20260902000016 | 65 | 0.0 | 0.0 | 0.00 | 0.00 | 0.00 | 77 | 1010.1 | |
| 20260901235016 | 65 | 0.0 | 0.9 | 0.00 | 0.00 | 0.00 | 77 | 1010.1 | |
| 20260901234017 | 65 | 0.0 | 0.0 | 0.00 | 0.00 | 0.00 | 77 | 1010.0 | |
| 20260901233016 | 65 | 0.0 | 0.0 | 0.00 | 0.00 | 0.00 | 77 | 1010.0 | |
| 20260901232017 | 65 | 0.0 | 2.6 | 0.00 | 0.00 | 0.00 | 77 | 1010.0 | |
| 20260901231016 | 65 | 0.0 | 2.6 | 0.00 | 0.00 | 0.00 | 77 | 1010.1 | |
| 20260901230016 | 65 | 0.0 | 0.9 | 0.00 | 0.00 | 0.00 | 78 | 1010.2 | |
| 20260901225016 | 65 | 0.0 | 0.9 | 0.00 | 0.00 | 0.00 | 78 | 1010.1 | |
| 20260901224017 | 65 | 0.0 | 0.9 | 0.00 | 0.00 | 0.00 | 78 | 1010.1 | |
| 20260901223016 | 65 | 0.0 | 0.9 | 0.00 | 0.00 | 0.00 | 78 | 1010.1 | |
| 20260901222016 | 65 | 0.0 | 1.7 | 0.00 | 0.00 | 0.00 | 77 | 1010.2 | |
| 20260901221021 | 66 | 0.0 | 1.7 | 0.00 | 0.00 | 0.00 | 76 | 1010.1 | |
| 20260901220017 | 66 | 0.0 | 1.7 | 0.00 | 0.00 | 0.00 | 76 | 1010.1 | |
| 20260901215017 | 66 | 0.0 | 2.6 | 0.00 | 0.00 | 0.00 | 77 | 1010.0 | |
| 20260901214022 | 66 | 0.0 | 0.9 | 0.00 | 0.00 | 0.00 | 76 | 1010.0 | |
| 20260901213016 | 66 | 0.0 | 0.9 | 0.00 | 0.00 | 0.00 | 76 | 1010.1 | |
| 20260901212040 | 66 | 0.0 | 0.9 | 0.00 | 0.00 | 0.00 | 75 | 1010.2 | |
| 20260901211018 | 66 | 0.0 | 0.9 | 0.00 | 0.00 | 0.00 | 75 | 1010.2 | |
| 20260901210018 | 66 | 0.0 | 1.7 | 0.00 | 0.00 | 0.00 | 75 | 1010.2 | |
| 20260901205018 | 66 | 0.0 | 0.0 | 0.00 | 0.00 | 0.00 | 75 | 1010.4 | |
| 20260901204037 | 66 | 0.0 | 0.9 | 0.00 | 0.00 | 0.00 | 76 | 1010.4 | |
| 20260901203017 | 66 | 0.0 | 2.6 | 0.00 | 0.00 | 0.00 | 77 | 1010.5 | |
| 20260901202015 | 66 | 0.0 | 0.9 | 0.00 | 0.00 | 0.00 | 77 | 1010.6 | |
| 20260901201016 | 66 | 0.0 | 3.5 | 0.00 | 0.00 | 0.00 | 76 | 1010.5 | |
| 20260901200015 | 66 | 0.0 | 3.5 | 0.00 | 0.00 | 0.00 | 75 | 1010.5 | |
| 20260901195038 | 66 | 0.0 | 0.9 | 0.00 | 0.00 | 0.00 | 76 | 1010.6 | |
| 20260901194016 | 65 | 0.0 | 2.6 | 0.00 | 0.00 | 0.00 | 75 | 1010.7 | |
| 20260901193016 | 66 | 0.0 | 1.7 | 0.00 | 0.00 | 0.00 | 75 | 1010.7 | |
| 20260901192016 | 66 | 45 | 0.9 | 3.5 | 0.00 | 0.00 | 0.00 | 75 | 1010.6 |
| 20260901191015 | 66 | 68 | 0.9 | 3.5 | 0.00 | 0.00 | 0.00 | 75 | 1010.5 |
| 20260901190015 | 65 | 158 | 0.9 | 5.2 | 0.00 | 0.00 | 0.00 | 75 | 1010.6 |
| 20260901185018 | 65 | 90 | 0.9 | 5.2 | 0.00 | 0.00 | 0.00 | 76 | 1010.7 |
| 20260901184017 | 65 | 135 | 0.9 | 4.3 | 0.00 | 0.00 | 0.00 | 77 | 1010.8 |
| 20260901183017 | 64 | 45 | 0.9 | 6.1 | 0.00 | 0.00 | 0.00 | 78 | 1010.6 |
| 20260901182017 | 64 | 45 | 0.9 | 3.5 | 0.00 | 0.00 | 0.00 | 78 | 1010.5 |
| 20260901181059 | 64 | 0.0 | 2.6 | 0.00 | 0.00 | 0.00 | 79 | 1010.5 | |
| 20260901180018 | 64 | 45 | 0.9 | 5.2 | 0.00 | 0.00 | 0.00 | 79 | 1010.4 |
| 20260901175020 | 64 | 135 | 0.9 | 1.7 | 0.00 | 0.00 | 0.00 | 79 | 1010.3 |
| 20260901174018 | 64 | 0.0 | 1.7 | 0.00 | 0.00 | 0.00 | 79 | 1010.2 | |
| 20260901173018 | 64 | 0.0 | 1.7 | 0.00 | 0.00 | 0.00 | 79 | 1010.0 | |
| 20260901172037 | 63 | 68 | 0.9 | 5.2 | 0.00 | 0.00 | 0.00 | 81 | 1010.1 |
| 20260901171039 | 62 | 68 | 0.9 | 3.5 | 0.00 | 0.00 | 0.00 | 83 | 1010.3 |
| 20260901170017 | 62 | 135 | 0.9 | 2.6 | 0.00 | 0.00 | 0.00 | 84 | 1010.3 |
| 20260901165043 | 61 | 0.0 | 1.7 | 0.00 | 0.00 | 0.00 | 85 | 1010.3 | |
| 20260901164017 | 61 | 0.0 | 1.7 | 0.00 | 0.00 | 0.00 | 85 | 1010.4 | |
| 20260901163017 | 60 | 0.0 | 0.9 | 0.00 | 0.00 | 0.00 | 86 | 1010.5 | |
| 20260901162017 | 60 | 0.0 | 1.7 | 0.00 | 0.00 | 0.00 | 87 | 1010.5 | |
| 20260901161017 | 60 | 0.0 | 0.9 | 0.00 | 0.00 | 0.00 | 87 | 1010.5 | |
| 20260901160018 | 60 | 0.0 | 2.6 | 0.00 | 0.00 | 0.00 | 88 | 1010.4 | |
| 20260901155017 | 59 | 0.0 | 2.6 | 0.00 | 0.00 | 0.00 | 89 | 1010.6 | |
| 20260901154037 | 59 | 113 | 0.9 | 4.3 | 0.00 | 0.00 | 0.00 | 90 | 1010.6 |
| 20260901153040 | 58 | 0.0 | 1.7 | 0.00 | 0.00 | 0.00 | 93 | 1010.6 | |
| 20260901152020 | 56 | 0.0 | 2.6 | 0.00 | 0.00 | 0.00 | 96 | 1010.5 | |
| 20260901151026 | 55 | 0.0 | 0.0 | 0.00 | 0.00 | 0.00 | 96 | 1010.5 | |
| 20260901150017 | 55 | 0.0 | 0.0 | 0.00 | 0.00 | 0.00 | 96 | 1010.4 | |
| 20260901145038 | 54 | 0.0 | 0.0 | 0.00 | 0.00 | 0.00 | 96 | 1010.4 | |
| 20260901144017 | 54 | 0.0 | 0.0 | 0.00 | 0.00 | 0.00 | 96 | 1010.3 | |
| 20260901143017 | 54 | 0.0 | 0.0 | 0.00 | 0.00 | 0.00 | 96 | 1010.2 | |
| 20260901142017 | 54 | 0.0 | 0.0 | 0.00 | 0.00 | 0.00 | 96 | 1010.2 | |
| 20260901141017 | 54 | 0.0 | 0.0 | 0.00 | 0.00 | 0.00 | 96 | 1010.1 | |
| 20260901140018 | 54 | 0.0 | 0.0 | 0.00 | 0.00 | 0.00 | 95 | 1010.0 | |
| 20260901135017 | 54 | 0.0 | 0.0 | 0.00 | 0.00 | 0.00 | 95 | 1010.0 | |
| 20260901134017 | 53 | 0.0 | 0.0 | 0.00 | 0.00 | 0.00 | 95 | 1009.9 | |
| 20260901133017 | 53 | 0.0 | 0.0 | 0.00 | 0.00 | 0.00 | 95 | 1009.9 | |
| 20260901132017 | 53 | 0.0 | 0.0 | 0.00 | 0.00 | 0.00 | 95 | 1009.9 | |
| 20260901131017 | 54 | 0.0 | 0.0 | 0.00 | 0.00 | 0.00 | 95 | 1009.9 | |
| 20260901130017 | 54 | 0.0 | 0.0 | 0.00 | 0.00 | 0.00 | 95 | 1009.9 | |
| 20260901125017 | 54 | 0.0 | 0.0 | 0.00 | 0.00 | 0.00 | 95 | 1009.8 | |
| 20260901124017 | 54 | 0.0 | 0.0 | 0.00 | 0.00 | 0.00 | 95 | 1009.8 | |
| 20260901123017 | 54 | 0.0 | 0.0 | 0.00 | 0.00 | 0.00 | 95 | 1009.6 | |
| 20260901122017 | 54 | 0.0 | 0.0 | 0.00 | 0.00 | 0.00 | 95 | 1009.7 | |
| 20260901121017 | 54 | 0.0 | 0.0 | 0.00 | 0.00 | 0.00 | 95 | 1009.6 | |
| 20260901120037 | 54 | 0.0 | 0.0 | 0.00 | 0.00 | 0.00 | 95 | 1009.5 | |
| 20260901115017 | 54 | 0.0 | 0.0 | 0.00 | 0.00 | 0.00 | 94 | 1009.5 | |
| 20260901114037 | 54 | 0.0 | 0.0 | 0.00 | 0.00 | 0.00 | 94 | 1009.4 | |
| 20260901113018 | 54 | 0.0 | 0.0 | 0.00 | 0.00 | 0.00 | 94 | 1009.4 | |
| 20260901112016 | 54 | 0.0 | 0.0 | 0.00 | 0.00 | 0.00 | 94 | 1009.5 | |
| 20260901111016 | 54 | 0.0 | 0.0 | 0.00 | 0.00 | 0.00 | 94 | 1009.4 | |
| 20260901110017 | 54 | 0.0 | 0.0 | 0.00 | 0.00 | 0.00 | 94 | 1009.5 | |
| 20260901105037 | 54 | 0.0 | 0.0 | 0.00 | 0.00 | 0.00 | 93 | 1009.5 | |
| 20260901104016 | 54 | 0.0 | 0.0 | 0.00 | 0.00 | 0.00 | 93 | 1009.4 | |
| 20260901103017 | 54 | 0.0 | 0.0 | 0.00 | 0.00 | 0.00 | 93 | 1009.3 | |
| 20260901102016 | 54 | 0.0 | 0.0 | 0.00 | 0.00 | 0.00 | 93 | 1009.3 | |
| 20260901101017 | 54 | 0.0 | 0.0 | 0.00 | 0.00 | 0.00 | 93 | 1009.2 | |
| 20260901100017 | 54 | 0.0 | 0.0 | 0.00 | 0.00 | 0.00 | 93 | 1009.2 | |
| 20260901095042 | 55 | 0.0 | 0.0 | 0.00 | 0.00 | 0.00 | 92 | 1009.1 | |
| 20260901094016 | 55 | 0.0 | 0.0 | 0.00 | 0.00 | 0.00 | 92 | 1009.2 |